{"data":{"norad_id":55165,"intl_designator":"2023-004AB","name":"ONEWEB-0624","alt_names":[],"object_type":"PAYLOAD","status":"ACTIVE","operator":null,"country":"UK","launch_date":"2023-01-10","launch_site_code":"AFETR","launch_vehicle":null,"mission":null,"orbit_class":"UNKNOWN","rcs_meters":null,"size_class":null,"mass_kg":null,"dimensions":null,"purposes":["comms"],"wikipedia_slug":null,"has_3d_model":false,"image_url":null,"decayed_at":null,"tle_current":{"epoch":"2026-09-20T03:37:45.803712Z","epoch_age_seconds":52015,"freshness":"FRESH","line1":"1 55165U 23004AB  26263.15122458 -.00000246  00000+0 -71297-3 0  9990","line2":"2 55165  87.8980 331.7156 0001893 104.4387 255.6952 13.12931374180533","mean_motion":13.12931374,"eccentricity":0.0001893,"inclination_deg":87.898,"raan_deg":331.7156,"arg_perigee_deg":104.4387,"mean_anomaly_deg":255.6952,"bstar":-0.00071297,"rev_number":18053,"period_min":109.67823821689,"perigee_km":1210.4037508073,"apogee_km":1213.2773163015,"semimajor_km":7589.9775335544,"source":"CELESTRAK","updated_at":"2026-09-20T09:00:44.755496Z"}}}